Location: Airlie Beach - Cannonvale QLD, Australia
(20.2768°S, 148.7558°E)
Time: 15:40:14
(UTC+10:00)

Tiangong - Pass Details

Date: 25 May 2026
Orbit: 381 x 392 km, 41.5° (Epoch: 8 June)

Event Time Altitude Azimuth Distance (km) Brightness Sun altitude
Exits shadow 04:46:16 15° 138° (SE) 1,159 0.6 -24.0°
Drops below altitude 10° 04:46:53 10° 136° (SE) 1,407 1.0 -23.9°
Sets 04:48:59 0° 132° (SE) 2,263 2.2 -23.4°
